Tracking 30918 objects as of 2-Jul-2025
HD Live streaming from Space Station
objects crossing your sky now

COSMOS 2251 DEB

Track COSMOS 2251 DEB now!
10-day predictions


NORAD ID: 34035
Int'l Code: 1993-036HW
Perigee: 700.6 km
Apogee: 766.0 km
Inclination: 74.1 °
Period: 99.3 minutes
Semi major axis: 7104 km
RCS: 0.0156 m2 (small)
Launch date: June 16, 1993
Source: Commonwealth of Independent States (former USSR) (CIS)
Launch site: PLESETSK MISSILE AND SPACE COMPLEX (PKMTR)

Note: This is SATELLITE DEBRIS
Your satellite tracking list
Your tracking list is empty




NASA's NSSDC Master Catalog

Two Line Element Set (TLE):
1 34035U 93036HW  25182.76859937  .00002861  00000-0  73840-3 0  9990
2 34035  74.0658 296.8550 0045996 347.9698 164.2170 14.49835532855880
Source of the keplerian elements: AFSPC